Morris, IL

2:41 PM CST on January 16, 2018 (GMT -0600)
Morris

Weather History for KC09 - November, 2013

Change the Weather History Date:

Saturday, November 9, 2013

  Actual Average (KARR) Record (KARR)
Temperature  
Mean Temperature 51 °F -  
Max Temperature 61 °F 48 °F 74 °F (1999)
Min Temperature 39 °F 30 °F 15 °F (2003)
Degree Days  
Heating Degree Days 14    
Growing Degree Days 1 (Base 50)    
Moisture  
Dew Point 33 °F    
Average Humidity 54    
Maximum Humidity 72    
Minimum Humidity 36    
Precipitation  
Precipitation 0.00 in - - ()
Sea Level Pressure  
Sea Level Pressure 29.96 in    
Wind  
Wind Speed 19 mph (WSW)    
Max Wind Speed 26 mph    
Max Gust Speed 34 mph    
Visibility 10 miles    
Events      
Averages and records for this station are not official NWS values.
T = Trace of Precipitation, MM = Missing Value Source: NWS Daily Summary

Daily Weather History Graph

Daily Weather History Graph

Search for Another Location

Airport or City:

Trip Planner

Search our weather history database for the weather conditions in past years. The results will help you decide how hot, cold, wet, or windy it might be!

Date:

Astronomy

Nov. 09, 2013 Rise Set
Actual Time 6:35 AM CST 4:39 PM CST
Civil Twilight 6:05 AM CST 5:08 PM CST
Nautical Twilight 5:32 AM CST 5:41 PM CST
Astronomical Twilight 5:00 AM CST 6:14 PM CST
Moon 12:11 PM CST (11/9) 11:10 PM CST (11/9)
Length of Visible Light 11h 02m
Length of Day
10h 04m
Waxing Crescent, 44% of the Moon is Illuminated
Nov 9
Waxing Crescent
Nov 9
First Quarter
Nov 17
Full
Nov 25
Last Quarter
Dec 2
New

Hourly Weather History & Observations

Time (CST) Temp. Windchill Dew Point Humidity Pressure Visibility Wind Dir Wind Speed Gust Speed Precip Events Conditions
12:15 AM 46.4 °F 38.3 °F 30.0 °F 53% 29.95 in 10.0 mi South 23.0 mph - N/A   Clear
12:35 AM 46.6 °F - 30.2 °F 53% 29.93 in 10.0 mi SSW 24.2 mph 31.1 mph N/A   Clear
12:55 AM 46.6 °F - 30.7 °F 54% 29.93 in 10.0 mi SSW 21.9 mph 28.8 mph N/A   Clear
1:15 AM 46.8 °F - 30.9 °F 54% 29.92 in 10.0 mi SSW 20.7 mph 27.6 mph N/A   Clear
1:35 AM 47.1 °F - 31.1 °F 54% 29.91 in 10.0 mi SSW 19.6 mph 29.9 mph N/A   Clear
1:55 AM 47.3 °F - 31.5 °F 54% 29.91 in 10.0 mi SSW 18.4 mph 23.0 mph N/A   Clear
2:15 AM 48.2 °F - 31.6 °F 53% 29.91 in 10.0 mi SSW 19.6 mph 25.3 mph N/A   Clear
2:35 AM 47.8 °F - 32.0 °F 54% 29.90 in 10.0 mi SSW 20.7 mph 26.5 mph N/A   Clear
2:55 AM 47.3 °F - 32.0 °F 55% 29.89 in 10.0 mi SSW 20.7 mph 25.3 mph N/A   Clear
3:15 AM 46.6 °F - 32.0 °F 57% 29.89 in 10.0 mi SSW 21.9 mph 29.9 mph N/A   Clear
3:35 AM 45.9 °F 38.3 °F 32.0 °F 58% 29.89 in 10.0 mi SSW 19.6 mph 25.3 mph N/A   Clear
3:55 AM 45.3 °F 38.4 °F 32.2 °F 60% 29.89 in 10.0 mi SW 16.1 mph - N/A   Clear
4:15 AM 44.8 °F 37.4 °F 32.4 °F 62% 29.89 in 10.0 mi SSW 17.3 mph - N/A   Clear
4:35 AM 44.6 °F 37.4 °F 32.9 °F 64% 29.89 in 10.0 mi SSW 16.1 mph 23.0 mph N/A   Clear
4:55 AM 44.4 °F 37.5 °F 32.9 °F 64% 29.88 in 10.0 mi SW 15.0 mph - N/A   Clear
5:15 AM 44.6 °F 37.8 °F 33.3 °F 64% 29.89 in 10.0 mi SW 15.0 mph 20.7 mph N/A   Clear
5:35 AM 44.6 °F 38.4 °F 33.6 °F 65% 29.89 in 10.0 mi SW 12.7 mph - N/A   Clear
5:55 AM 44.6 °F 38.1 °F 34.0 °F 66% 29.89 in 10.0 mi SW 13.8 mph 20.7 mph N/A   Clear
6:15 AM 45.7 °F 38.3 °F 34.0 °F 64% 29.89 in 10.0 mi SW 18.4 mph 24.2 mph N/A   Clear
6:35 AM 46.4 °F 40.1 °F 34.0 °F 62% 29.90 in 10.0 mi SW 15.0 mph 24.2 mph N/A   Clear
6:55 AM 46.6 °F - 34.2 °F 62% 29.90 in 10.0 mi SW 17.3 mph - N/A   Clear
7:15 AM 46.9 °F - 34.3 °F 62% 29.91 in 10.0 mi WSW 17.3 mph 21.9 mph N/A   Clear
7:35 AM 46.9 °F - 34.5 °F 62% 29.91 in 10.0 mi WSW 17.3 mph - N/A   Clear
7:55 AM 47.3 °F - 34.7 °F 62% 29.91 in 10.0 mi WSW 16.1 mph 23.0 mph N/A   Clear
8:15 AM 47.5 °F - 34.7 °F 61% 29.91 in 10.0 mi WSW 18.4 mph 23.0 mph N/A   Clear
8:35 AM 48.7 °F - 35.6 °F 60% 29.91 in 10.0 mi WSW 16.1 mph 23.0 mph N/A   Clear
8:55 AM 51.3 °F - 35.8 °F 55% 29.91 in 10.0 mi WSW 21.9 mph 26.5 mph N/A   Clear
9:15 AM 52.3 °F - 36.0 °F 54% 29.92 in 10.0 mi WSW 19.6 mph - N/A   Clear
9:35 AM 53.8 °F - 35.6 °F 50% 29.92 in 10.0 mi WSW 20.7 mph 25.3 mph N/A   Clear
9:55 AM 55.4 °F - 34.7 °F 46% 29.93 in 10.0 mi WSW 21.9 mph 27.6 mph N/A   Clear
10:15 AM 56.7 °F - 34.2 °F 43% 29.93 in 10.0 mi West 19.6 mph 24.2 mph N/A   Clear
10:35 AM 57.2 °F - 34.2 °F 42% 29.93 in 10.0 mi West 20.7 mph 27.6 mph N/A   Clear
10:55 AM 57.4 °F - 34.0 °F 41% 29.93 in 10.0 mi West 20.7 mph 26.5 mph N/A   Clear
11:15 AM 58.3 °F - 34.9 °F 41% 29.93 in 10.0 mi WSW 18.4 mph 26.5 mph N/A   Clear
11:35 AM 59.0 °F - 34.5 °F 40% 29.93 in 10.0 mi West 18.4 mph 23.0 mph N/A   Clear
11:55 AM 60.1 °F - 34.0 °F 38% 29.92 in 10.0 mi West 18.4 mph 25.3 mph N/A   Clear
12:15 PM 60.1 °F - 33.8 °F 37% 29.91 in 10.0 mi West 20.7 mph 24.2 mph N/A   Clear
12:35 PM 60.4 °F - 33.3 °F 36% 29.91 in 10.0 mi West 21.9 mph 28.8 mph N/A   Clear
12:55 PM 61.0 °F - 34.0 °F 36% 29.91 in 10.0 mi West 24.2 mph 28.8 mph N/A   Scattered Clouds
1:15 PM 60.3 °F - 33.1 °F 36% 29.92 in 10.0 mi West 20.7 mph 29.9 mph N/A   Scattered Clouds
1:35 PM 59.5 °F - 32.7 °F 36% 29.92 in 10.0 mi WNW 25.3 mph 32.2 mph N/A   Clear
1:55 PM 60.3 °F - 33.3 °F 36% 29.94 in 10.0 mi West 24.2 mph 29.9 mph N/A   Scattered Clouds
2:15 PM 59.2 °F - 33.3 °F 38% 29.94 in 10.0 mi West 24.2 mph 32.2 mph N/A   Scattered Clouds
2:35 PM 59.0 °F - 33.4 °F 38% 29.95 in 10.0 mi West 21.9 mph 32.2 mph N/A   Scattered Clouds
2:55 PM 58.5 °F - 33.3 °F 39% 29.95 in 10.0 mi West 26.5 mph 31.1 mph N/A   Scattered Clouds
3:15 PM 58.1 °F - 33.4 °F 39% 29.96 in 10.0 mi West 24.2 mph 34.5 mph N/A   Scattered Clouds
3:35 PM 57.9 °F - 34.3 °F 41% 29.97 in 10.0 mi West 18.4 mph 24.2 mph N/A   Clear
3:55 PM 57.0 °F - 34.2 °F 42% 29.97 in 10.0 mi West 21.9 mph 27.6 mph N/A   Clear
4:15 PM 55.8 °F - 34.2 °F 44% 29.98 in 10.0 mi West 21.9 mph 28.8 mph N/A   Clear
4:35 PM 54.5 °F - 34.7 °F 47% 29.99 in 10.0 mi West 18.4 mph 27.6 mph N/A   Clear
4:55 PM 53.1 °F - 35.1 °F 50% 30.00 in 10.0 mi West 16.1 mph 21.9 mph N/A   Clear
5:15 PM 52.2 °F - 35.2 °F 53% 30.01 in 10.0 mi West 15.0 mph 21.9 mph N/A   Clear
5:35 PM 51.8 °F - 35.2 °F 53% 30.02 in 10.0 mi West 16.1 mph - N/A   Clear
5:55 PM 51.3 °F - 34.9 °F 54% 30.03 in 10.0 mi West 15.0 mph - N/A   Clear
6:15 PM 50.4 °F - 34.7 °F 55% 30.04 in 10.0 mi West 12.7 mph - N/A   Clear
6:35 PM 50.0 °F - 34.3 °F 55% 30.04 in 10.0 mi West 13.8 mph 21.9 mph N/A   Clear
6:55 PM 49.5 °F - 34.2 °F 56% 30.05 in 10.0 mi West 13.8 mph 20.7 mph N/A   Clear
7:15 PM 49.1 °F - 33.8 °F 56% 30.06 in 10.0 mi West 13.8 mph - N/A   Clear
7:35 PM 48.4 °F - 34.0 °F 58% 30.06 in 10.0 mi West 11.5 mph - N/A   Clear
8:35 PM 46.4 °F 41.1 °F 33.8 °F 62% 30.07 in 10.0 mi West 11.5 mph - N/A   Clear
8:55 PM 45.1 °F 39.9 °F 33.8 °F 65% 30.07 in 10.0 mi West 10.4 mph - N/A   Clear
9:15 PM 44.2 °F 39.2 °F 33.8 °F 67% 30.08 in 10.0 mi West 9.2 mph - N/A   Clear
9:35 PM 43.9 °F 38.3 °F 33.8 °F 68% 30.09 in 10.0 mi West 10.4 mph - N/A   Clear
9:55 PM 41.9 °F 35.4 °F 33.6 °F 72% 30.10 in 10.0 mi WNW 11.5 mph - N/A   Clear
10:15 PM 42.3 °F 36.3 °F 34.0 °F 72% 30.12 in 10.0 mi WNW 10.4 mph - N/A   Scattered Clouds
10:35 PM 42.6 °F 37.2 °F 34.0 °F 71% 30.12 in 10.0 mi West 9.2 mph - N/A   Mostly Cloudy
10:55 PM 43.0 °F 37.2 °F 33.1 °F 68% 30.13 in 10.0 mi NW 10.4 mph 20.7 mph N/A   Scattered Clouds
11:15 PM 42.3 °F 35.5 °F 32.2 °F 67% 30.14 in 10.0 mi NW 12.7 mph 18.4 mph N/A   Scattered Clouds
11:35 PM 41.2 °F 34.5 °F 29.5 °F 63% 30.15 in 10.0 mi NW 11.5 mph - N/A   Scattered Clouds
11:55 PM 39.4 °F 32.3 °F 28.4 °F 65% 30.15 in 10.0 mi WNW 11.5 mph - N/A   Clear